Location: Bonny Doon Airfield
(37.0704°N, 122.1252°W)
Time: 17:37:32
(UTC-07:00)

ISS - Pass Details

Date: 12 October 2017
Orbit: 401 x 408 km, 51.6° (Epoch: 23 October)

Event Time Altitude Azimuth Distance (km) Brightness Sun altitude
Rises 19:39:53 0° 318° (NW) 2,324 0.7 -13.7°
Reaches altitude 10° 19:42:09 10° 331° (NNW) 1,463 -0.6 -14.1°
Maximum altitude 19:45:03 28° 32° (NNE) 797 -2.6 -14.7°
Enters shadow 19:45:39 26° 53° (NE) 837 -2.7 -14.8°
